Home > Time Zones > World Clock > Weather > Qatar > Doha > Past weeks

Flag for Qatar Weather past 2 weeks in Doha, Qatar

Now
107 °F

Low level haze.


Feels Like: 103 °F
Forecast: 92 / 109 °F
Wind: 31 mph from North

Location: Al Udeid

Current Time: Jul 23, 2014 at 4:32:51 PM

Latest Report: Jul 23, 2014 at 2:58 PM


Visibility: 6 mi

Pressure: 29.44 "Hg

Humidity: 13%

Dew point: 47 °F

Location of DohaLocation

Historic Weather in Doha — Graph

°F

Doha temperature yesterday

Maximum temperature yesterday: 112 °F (at 12:58 PM)
Minimum temperature yesterday: 84 °F (at 4:58 AM)
Average temperature yesterday: 100 °F

Past Weeks' High & Low Weather Summary

 TemperatureHumidityPressure
High114 °F (Jul 14, 12:58 PM)92% (Jul 19, 5:58 AM)29.60 "Hg (Jul 19, 5:58 AM)
Low82 °F (Jul 9, 4:58 AM)6% (Jul 10, 5:58 PM)29.34 "Hg (Jul 17, 11:58 PM)
Average99 °F30%29.47 "Hg
* Reported Jul 8 1:58 PM — Jul 23 1:58 PM, Doha, Weather by CustomWeather, © 2014

Note: Actual official high and low records may vary slightly from our data, if they occured in-between our weather recording intervals... More about our weather records

Advertising

Doha weather history for previous 24 hours

 ConditionsComfort  
Time TempWeatherWind HumidityBarometerVisibility
1:58 PM
Jul 23
108 °FSunny.36 mph11%29.45 "Hg2 mi
12:58 PM109 °FSunny.31 mph11%29.47 "Hg2 mi
12:03 PM109 °FScattered clouds.29 mph13%29.49 "Hg2 mi
11:58 AM108 °FSunny.30 mph13%29.48 "Hg4 mi
10:58 AM107 °FSunny.25 mph16%29.50 "Hg5 mi
8:58 AM102 °FSunny.21 mph26%29.51 "HgN/A
7:58 AM97 °FSunny.18 mph37%29.51 "HgN/A
6:58 AM94 °FSunny.21 mph45%29.50 "HgN/A
5:58 AM89 °FSunny.13 mph56%29.49 "HgN/A
4:58 AM88 °FClear.14 mph53%29.48 "HgN/A
3:58 AM86 °FClear.9 mph62%29.47 "HgN/A
2:58 AM85 °FClear.7 mph59%29.46 "HgN/A
7:58 PM
Jul 22
98 °FSunny.8 mph29%29.50 "HgN/A
6:58 PM101 °FSunny.16 mph25%29.48 "HgN/A
5:58 PM104 °FSunny.18 mph22%29.46 "HgN/A
4:58 PM108 °FSunny.20 mph18%29.46 "HgN/A
Weather by CustomWeather, © 2014

See weather overviewHow to use our weather pages